Погода в Алтачей

Россия / Республика Бурятия     50°42′27″N   107°32′11″E
темп.,
°C
ветер,
м/с
пор.,
м/с
влажн.,
%
обл.,
%
осадки,
мм/ч
давл.,
гПа
погр.,
м
16 апреля, пт
пт1623:00−3сз6138687 0.4 1021858
02:00−4сз4118080 0.5 1024735
05:00−6з239026 0.0 102687
08:00−3зсз366512 0.0 1027700
11:00+2з35358 0.0 10241587
14:00+6з45225 0.0 10211735
17:00+7з35235 0.0 10191563
20:00+2юз11381 0.0 101911
17 апреля, сб
сб1723:000ююв11440 0.0 101921
02:00−1юв12483 0.0 101731
05:00−2вюв11555 0.0 101620
08:00+3ююв13445 0.0 1014195
11:00+10юз47315 0.0 1010955
14:00+14зюз68240 0.0 10061951
17:00+15з47230 0.0 10042406
20:00+8с33385 0.0 100628
18 апреля, вс
вс1823:00+6ссв224346 0.0 100713
02:00+1ссз368681 0.0 1011151
05:00+1с3787100 0.0 1012312
08:00+1с356995 0.0 1013398
11:00+7ссз344878 0.0 1011971
14:00+11ссз443910 0.0 10071352
17:00+8с684699 0.0 10101174
20:00+3с51159100 0.0 1017821
19 апреля, пн
пн1923:000с2370100 0.0 1021104
02:00−1с117853 0.0 102220
05:00−2ссв118292 0.0 102310
08:00+1вюв22596 0.0 1022395
11:00+6юв233166 0.0 1019963
14:00+11юз36265 0.0 10131526
17:00+13зюз46280 0.0 10111661
20:00+7в004545 0.0 101110
20 апреля, вт
вт2023:00+6в2151100 0.0 101114
02:00+5в2255100 0.0 100927
05:00+5вюв225496 0.0 100713
08:00+9ю1246100 0.0 100690
11:00+13з2335100 0.0 1006628
14:00+15сз2329100 0.0 10041101
17:00+13ссз4435100 0.0 1005579
20:00+7с59480 0.0 1009419